Hourly Data Report for May 01, 2012

All times are specified in Local Standard Time (LST). Add 1 hour to adjust for Daylight Saving Time where and when it is observed.

SAULT STE MARIE A
ONTARIO

46°29'06.000" N
84°30'35.000" W
192.00 m
6057591
71260
YAM

Related Data

No related data is available for this station

Download Data

Hourly Data (May 2012)
Hourly Data Report for May 1, 2012
Temp Definition
°C
Dew Point Temp Definition
°C
Rel Hum Definition
%
Wind Dir Definition
10's deg

Wind Spd Definition
km/h
Visibility Definition
km
Stn Press Definition
kPa
Hmdx Definition


Wind Chill Definition


Weather Definition


TIME
00:00 Legend Double Dagger 5.3 3.5 88   0 10.0 99.08     LegendNANA
01:00 Legend Double Dagger 4.9 3.4 90   0 10.0 99.08     Cloudy
02:00 Legend Double Dagger 5.0 3.3 89 17 5 10.0 99.07     LegendNANA
03:00 Legend Double Dagger 4.8 3.3 90   0 10.0 99.07     LegendNANA
04:00 Legend Double Dagger 3.6 2.7 94   0 10.0 99.09     Cloudy
05:00 Legend Double Dagger 1.1 1.1 100   0 10.0 99.17     Fog
06:00 Legend Double Dagger -0.8 -0.8 100   0 10.0 99.23     LegendNANA
07:00 Legend Double Dagger 5.5 4.2 91 12 4 10.0 99.33     Mainly Clear
08:00 Legend Double Dagger 7.6 4.6 81 14 8 10.0 99.33     LegendNANA
09:00 Legend Double Dagger 9.9 5.5 74 6 7 10.0 99.33     LegendNANA
10:00 Legend Double Dagger 11.7 6.2 69 20 8 10.0 99.31     Mostly Cloudy
11:00 Legend Double Dagger 14.3 7.0 61 19 9 10.0 99.27     LegendNANA
12:00 Legend Double Dagger 16.4 7.2 54 23 7 10.0 99.24     LegendNANA
13:00 Legend Double Dagger 17.9 7.2 49 19 12 10.0 99.18     Mainly Clear
14:00 Legend Double Dagger 17.7 7.0 49 23 10 10.0 99.15     LegendNANA
15:00 Legend Double Dagger 18.9 7.2 46 20 13 10.0 99.18     LegendNANA
16:00 Legend Double Dagger 18.9 6.2 43 17 13 10.0 99.17     Mainly Clear
17:00 Legend Double Dagger 18.7 6.3 44 17 16 10.0 99.11     LegendNANA
18:00 Legend Double Dagger 18.0 6.3 46 19 12 10.0 99.08     LegendNANA
19:00 Legend Double Dagger 16.0 6.5 53 15 12 10.0 99.04     Mainly Clear
20:00 Legend Double Dagger 12.3 5.7 64 13 18 10.0 99.07     LegendNANA
21:00 Legend Double Dagger 9.9 5.1 72 10 9 10.0 99.07     LegendNANA
22:00 Legend Double Dagger 9.6 5.4 75 9 15 10.0 99.09     Mostly Cloudy
23:00 Legend Double Dagger 9.0 5.0 76 11 13 10.0 99.05     LegendNANA

Notes on Data Quality.

Legend

  • E = Estimated
  • M = Missing
  • NA = Not Available
  • ‡ = Partner data that is not subject to review by the National Climate Archives
Date modified: